STARLINK-11683 [DTC] (64239 NORAD) Tracking and Keplerian Element Data

This shows tracking and keplerian element data for the satellite.

Feedback or suggestion? Click here.




ElementValue
Catalog64239
NameSTARLINK-11683 [DTC]
Epoch Orbit3271
Epoch Day353.99103554
Epoch Year2025
RAAN329.2008
Inclination42.9996
Eccentricity0.0001631
Argument of Perigee274.7661
Mean Anonmoly85.302
Mean Motion15.7097377
Decay Rate0.00288195
L11 64239U 25119G 25353.99103554 .00288195 00000+0 21603-2 0 9992
L22 64239 42.9996 329.2008 0001631 274.7661 85.3020 15.70973770 32710



Live tracking and technical data element details for STARLINK-11683 [DTC] (NORAD 64239). STARLINK-11683 [DTC] can be tracked NOW for your location showing map with azimuth and elevation plus other details from your city location.







IsCatalogInMostPopularTable: catalog: 64239, numindb: 9
Update: records affected: 1



GetName: 64239 STARLINK-11683 [DTC]

Hit Count: updated at: Mon, 20 Apr 2026 09:49:04 GMT